Torna al catalogo

NIMBUS 2 DEB

AttivoLEO
NORAD 28620·DEBRIS·🇺🇸 United States

Lanciato May 15, 1966 da Vandenberg Space Force Base

Loading…

Prossimi Passaggi (prossime 24 ore)

TLE

In scadenzaSource: Space-Track

Epoca: Sep 12, 2026, 13:09 UTC

1 28620U 66040AK  26255.54816877  .00001445  00000-0  22383-2 0  9994
2 28620 100.4330 171.8193 0038380 169.0177   6.8711 13.52732919 63020

Traccia NIMBUS 2 DEB in tempo reale con AllMySat

Download on the App Store